| time (UTC) | temp F | wind direction | speed MPH | gust MPH | rain 1hr in | rain 24hr in | rain mn in | humidity % | barometer mb |
| 20260831185526 | 65 | 298 | 1.0 | 7.0 | 0.00 | 0.00 | 0.00 | 69 | 1012.5 |
| 20260831185027 | 65 | 100 | 2.0 | 6.0 | 0.00 | 0.00 | 0.00 | 68 | 1012.5 |
| 20260831184550 | 65 | 0 | 0.0 | 6.0 | 0.00 | 0.00 | 0.00 | 70 | 1012.6 |
| 20260831184031 | 65 | 139 | 0.0 | 6.0 | 0.00 | 0.00 | 0.00 | 70 | 1012.7 |
| 20260831183529 | 64 | 106 | 1.0 | 6.0 | 0.00 | 0.00 | 0.00 | 70 | 1012.6 |
| 20260831183044 | 64 | 116 | 1.0 | 6.0 | 0.00 | 0.00 | 0.00 | 72 | 1012.8 |
| 20260831182525 | 63 | 106 | 1.0 | 6.0 | 0.00 | 0.00 | 0.00 | 71 | 1012.9 |
| 20260831182026 | 63 | 49 | 1.0 | 4.0 | 0.00 | 0.00 | 0.00 | 72 | 1013.0 |
| 20260831181549 | 63 | 102 | 1.0 | 6.0 | 0.00 | 0.00 | 0.00 | 71 | 1013.1 |
| 20260831181022 | 63 | 18 | 1.0 | 6.0 | 0.00 | 0.00 | 0.00 | 72 | 1013.1 |
| 20260831180524 | 63 | 277 | 0.0 | 6.0 | 0.00 | 0.00 | 0.00 | 74 | 1013.1 |
| 20260831180047 | 62 | 0 | 2.0 | 6.0 | 0.00 | 0.00 | 0.00 | 73 | 1013.0 |
| 20260831175524 | 63 | 109 | 1.0 | 4.0 | 0.00 | 0.00 | 0.00 | 72 | 1013.1 |
| 20260831175026 | 62 | 74 | 0.0 | 3.0 | 0.00 | 0.00 | 0.00 | 73 | 1013.2 |
| 20260831174544 | 62 | 124 | 1.0 | 7.0 | 0.00 | 0.00 | 0.00 | 73 | 1013.1 |
| 20260831174027 | 61 | 96 | 1.0 | 7.0 | 0.00 | 0.00 | 0.00 | 74 | 1013.1 |
| 20260831173524 | 61 | 0 | 1.0 | 4.0 | 0.00 | 0.00 | 0.00 | 74 | 1013.2 |
| 20260831173106 | 61 | 0 | 0.0 | 3.0 | 0.00 | 0.00 | 0.00 | 75 | 1013.2 |
| 20260831172526 | 60 | 0 | 0.0 | 3.0 | 0.00 | 0.00 | 0.00 | 76 | 1013.3 |
| 20260831172027 | 60 | 0 | 0.0 | 3.0 | 0.00 | 0.00 | 0.00 | 76 | 1013.4 |
| 20260831171547 | 60 | 133 | 1.0 | 3.0 | 0.00 | 0.00 | 0.00 | 76 | 1013.5 |
| 20260831171026 | 60 | 118 | 0.0 | 3.0 | 0.00 | 0.00 | 0.00 | 78 | 1013.6 |
| 20260831170525 | 60 | 67 | 0.0 | 3.0 | 0.00 | 0.00 | 0.00 | 78 | 1013.5 |
| 20260831170056 | 59 | 115 | 0.0 | 6.0 | 0.00 | 0.00 | 0.00 | 79 | 1013.7 |
| 20260831165524 | 58 | 86 | 0.0 | 6.0 | 0.00 | 0.00 | 0.00 | 80 | 1013.7 |
| 20260831165026 | 58 | 83 | 2.0 | 6.0 | 0.00 | 0.00 | 0.00 | 80 | 1013.7 |
| 20260831164559 | 58 | 113 | 0.0 | 4.0 | 0.00 | 0.00 | 0.00 | 81 | 1013.7 |
| 20260831164023 | 58 | 104 | 0.0 | 4.0 | 0.00 | 0.00 | 0.00 | 82 | 1013.7 |
| 20260831163524 | 57 | 121 | 1.0 | 4.0 | 0.00 | 0.00 | 0.00 | 81 | 1013.8 |
| 20260831163055 | 57 | 84 | 0.0 | 3.0 | 0.00 | 0.00 | 0.00 | 81 | 1013.8 |
| 20260831162526 | 57 | 0 | 0.0 | 3.0 | 0.00 | 0.00 | 0.00 | 82 | 1013.8 |
| 20260831162024 | 56 | 78 | 0.0 | 3.0 | 0.00 | 0.00 | 0.00 | 82 | 1013.8 |
| 20260831161549 | 56 | 86 | 0.0 | 3.0 | 0.00 | 0.00 | 0.00 | 83 | 1013.9 |
| 20260831161023 | 56 | 96 | 0.0 | 3.0 | 0.00 | 0.00 | 0.00 | 84 | 1013.9 |
| 20260831160527 | 55 | 0 | 0.0 | 3.0 | 0.00 | 0.00 | 0.00 | 83 | 1014.0 |
| 20260831160048 | 56 | 118 | 0.0 | 3.0 | 0.00 | 0.00 | 0.00 | 84 | 1014.0 |
| 20260831155526 | 55 | 0 | 0.0 | 1.0 | 0.00 | 0.00 | 0.00 | 85 | 1014.0 |
| 20260831155024 | 55 | 0 | 0.0 | 1.0 | 0.00 | 0.00 | 0.00 | 86 | 1014.1 |
| 20260831154606 | 55 | 0 | 0.0 | 1.0 | 0.00 | 0.00 | 0.00 | 86 | 1014.0 |
| 20260831154025 | 55 | 0 | 0.0 | 1.0 | 0.00 | 0.00 | 0.00 | 86 | 1014.0 |
| 20260831153523 | 55 | 0 | 0.0 | 1.0 | 0.00 | 0.00 | 0.00 | 86 | 1014.0 |
| 20260831153046 | 55 | 0 | 0.0 | 1.0 | 0.00 | 0.00 | 0.00 | 86 | 1014.0 |
| 20260831152523 | 54 | 0 | 0.0 | 0.0 | 0.00 | 0.00 | 0.00 | 87 | 1014.1 |
| 20260831152026 | 54 | 0 | 0.0 | 1.0 | 0.00 | 0.00 | 0.00 | 86 | 1014.0 |
| 20260831151547 | 54 | 0 | 0.0 | 2.0 | 0.00 | 0.00 | 0.00 | 86 | 1014.0 |
| 20260831151023 | 53 | 0 | 0.0 | 2.0 | 0.00 | 0.00 | 0.00 | 87 | 1014.0 |
| 20260831150526 | 53 | 0 | 0.0 | 2.0 | 0.00 | 0.00 | 0.00 | 87 | 1014.0 |
| 20260831150051 | 53 | 0 | 0.0 | 2.0 | 0.00 | 0.00 | 0.00 | 88 | 1014.0 |
| 20260831145523 | 52 | 117 | 0.0 | 2.0 | 0.00 | 0.00 | 0.00 | 89 | 1014.1 |
| 20260831145029 | 52 | 0 | 0.0 | 4.0 | 0.00 | 0.00 | 0.00 | 90 | 1014.1 |
| 20260831144549 | 52 | 0 | 0.0 | 4.0 | 0.00 | 0.00 | 0.00 | 91 | 1014.1 |
| 20260831144023 | 51 | 0 | 0.0 | 4.0 | 0.00 | 0.00 | 0.00 | 92 | 1014.1 |
| 20260831143525 | 51 | 0 | 0.0 | 0.0 | 0.00 | 0.00 | 0.00 | 92 | 1014.2 |
| 20260831143056 | 50 | 0 | 0.0 | 0.0 | 0.00 | 0.00 | 0.00 | 92 | 1014.2 |
| 20260831142523 | 50 | 0 | 0.0 | 0.0 | 0.00 | 0.00 | 0.00 | 93 | 1014.1 |
| 20260831142023 | 50 | 0 | 0.0 | 1.0 | 0.00 | 0.00 | 0.00 | 92 | 1014.2 |
| 20260831141557 | 50 | 0 | 0.0 | 1.0 | 0.00 | 0.00 | 0.00 | 92 | 1014.1 |
| 20260831141025 | 50 | 0 | 0.0 | 1.0 | 0.00 | 0.00 | 0.00 | 91 | 1014.2 |
| 20260831140524 | 50 | 0 | 0.0 | 2.0 | 0.00 | 0.00 | 0.00 | 91 | 1014.1 |
| 20260831140046 | 50 | 0 | 0.0 | 2.0 | 0.00 | 0.00 | 0.00 | 91 | 1014.2 |
| 20260831135524 | 50 | 0 | 0.0 | 2.0 | 0.00 | 0.00 | 0.00 | 91 | 1014.1 |
| 20260831135024 | 50 | 0 | 0.0 | 0.0 | 0.00 | 0.00 | 0.00 | 92 | 1014.1 |
| 20260831134553 | 50 | 0 | 0.0 | 0.0 | 0.00 | 0.00 | 0.00 | 91 | 1014.1 |
| 20260831134026 | 50 | 0 | 0.0 | 0.0 | 0.00 | 0.00 | 0.00 | 92 | 1014.0 |
| 20260831133526 | 50 | 0 | 0.0 | 0.0 | 0.00 | 0.00 | 0.00 | 92 | 1014.0 |
| 20260831133045 | 50 | 0 | 0.0 | 0.0 | 0.00 | 0.00 | 0.00 | 91 | 1014.0 |
| 20260831132527 | 50 | 0 | 0.0 | 0.0 | 0.00 | 0.00 | 0.00 | 91 | 1014.1 |
| 20260831132025 | 50 | 0 | 0.0 | 0.0 | 0.00 | 0.00 | 0.00 | 91 | 1014.2 |
| 20260831131542 | 50 | 0 | 0.0 | 0.0 | 0.00 | 0.00 | 0.00 | 91 | 1014.2 |
| 20260831131025 | 50 | 0 | 0.0 | 0.0 | 0.00 | 0.00 | 0.00 | 91 | 1014.3 |
| 20260831130523 | 50 | 0 | 0.0 | 0.0 | 0.00 | 0.00 | 0.00 | 92 | 1014.2 |
| 20260831130044 | 50 | 0 | 0.0 | 0.0 | 0.00 | 0.00 | 0.00 | 92 | 1014.3 |
| 20260831125525 | 50 | 0 | 0.0 | 0.0 | 0.00 | 0.00 | 0.00 | 91 | 1014.3 |
| 20260831125026 | 50 | 0 | 0.0 | 0.0 | 0.00 | 0.00 | 0.00 | 91 | 1014.4 |
| 20260831124557 | 50 | 0 | 0.0 | 0.0 | 0.00 | 0.00 | 0.00 | 91 | 1014.4 |
| 20260831124023 | 50 | 0 | 0.0 | 1.0 | 0.00 | 0.00 | 0.00 | 91 | 1014.4 |
| 20260831123525 | 50 | 0 | 0.0 | 1.0 | 0.00 | 0.00 | 0.00 | 91 | 1014.4 |
| 20260831123045 | 50 | 0 | 0.0 | 1.0 | 0.00 | 0.00 | 0.00 | 91 | 1014.5 |
| 20260831122524 | 50 | 0 | 0.0 | 2.0 | 0.00 | 0.00 | 0.00 | 90 | 1014.4 |
| 20260831122024 | 51 | 0 | 0.0 | 2.0 | 0.00 | 0.00 | 0.00 | 90 | 1014.6 |
| 20260831121544 | 51 | 0 | 0.0 | 2.0 | 0.00 | 0.00 | 0.00 | 90 | 1014.6 |
| 20260831121024 | 51 | 0 | 0.0 | 1.0 | 0.00 | 0.00 | 0.00 | 90 | 1014.6 |
| 20260831120526 | 51 | 0 | 0.0 | 0.0 | 0.00 | 0.00 | 0.00 | 90 | 1014.7 |
| 20260831120047 | 50 | 0 | 0.0 | 0.0 | 0.00 | 0.00 | 0.00 | 91 | 1014.7 |
| 20260831115523 | 50 | 0 | 0.0 | 0.0 | 0.00 | 0.00 | 0.00 | 91 | 1014.7 |
| 20260831115024 | 50 | 0 | 0.0 | 0.0 | 0.00 | 0.00 | 0.00 | 91 | 1014.7 |
| 20260831114553 | 50 | 0 | 0.0 | 0.0 | 0.00 | 0.00 | 0.00 | 91 | 1014.7 |
| 20260831114025 | 50 | 0 | 0.0 | 0.0 | 0.00 | 0.00 | 0.00 | 91 | 1014.8 |
| 20260831113523 | 50 | 0 | 0.0 | 0.0 | 0.00 | 0.00 | 0.00 | 91 | 1014.8 |
| 20260831113048 | 51 | 0 | 0.0 | 0.0 | 0.00 | 0.00 | 0.00 | 90 | 1014.9 |
| 20260831112524 | 51 | 0 | 0.0 | 0.0 | 0.00 | 0.00 | 0.00 | 90 | 1014.9 |
| 20260831112024 | 50 | 0 | 0.0 | 0.0 | 0.00 | 0.00 | 0.00 | 91 | 1014.9 |
| 20260831111545 | 50 | 0 | 0.0 | 0.0 | 0.00 | 0.00 | 0.00 | 91 | 1015.1 |
| 20260831111023 | 50 | 0 | 0.0 | 0.0 | 0.00 | 0.00 | 0.00 | 91 | 1015.1 |
| 20260831110525 | 50 | 0 | 0.0 | 0.0 | 0.00 | 0.00 | 0.00 | 91 | 1015.2 |
| 20260831110042 | 50 | 0 | 0.0 | 0.0 | 0.00 | 0.00 | 0.00 | 91 | 1015.2 |
| 20260831105525 | 50 | 0 | 0.0 | 0.0 | 0.00 | 0.00 | 0.00 | 91 | 1015.2 |
| 20260831105024 | 50 | 0 | 0.0 | 0.0 | 0.00 | 0.00 | 0.00 | 90 | 1015.3 |
| 20260831104604 | 51 | 0 | 0.0 | 0.0 | 0.00 | 0.00 | 0.00 | 90 | 1015.3 |
| 20260831104021 | 51 | 0 | 0.0 | 0.0 | 0.00 | 0.00 | 0.00 | 89 | 1015.3 |
| 20260831103529 | 51 | 0 | 0.0 | 3.0 | 0.00 | 0.00 | 0.00 | 89 | 1015.4 |
| 20260831103046 | 51 | 0 | 0.0 | 3.0 | 0.00 | 0.00 | 0.00 | 89 | 1015.4 |
| 20260831102527 | 51 | 0 | 0.0 | 3.0 | 0.00 | 0.00 | 0.00 | 90 | 1015.5 |
| 20260831102024 | 51 | 0 | 0.0 | 3.0 | 0.00 | 0.00 | 0.00 | 90 | 1015.5 |
| 20260831101548 | 51 | 0 | 0.0 | 3.0 | 0.00 | 0.00 | 0.00 | 91 | 1015.5 |
| 20260831101024 | 51 | 0 | 0.0 | 3.0 | 0.00 | 0.00 | 0.00 | 91 | 1015.5 |
| 20260831100525 | 51 | 0 | 0.0 | 3.0 | 0.00 | 0.00 | 0.00 | 91 | 1015.6 |
| 20260831100047 | 51 | 0 | 0.0 | 1.0 | 0.00 | 0.00 | 0.00 | 91 | 1015.6 |
| 20260831095526 | 51 | 261 | 0.0 | 1.0 | 0.00 | 0.00 | 0.00 | 91 | 1015.6 |
| 20260831095021 | 51 | 0 | 0.0 | 1.0 | 0.00 | 0.00 | 0.00 | 91 | 1015.8 |
| 20260831094603 | 51 | 0 | 0.0 | 0.0 | 0.00 | 0.00 | 0.00 | 90 | 1015.8 |
| 20260831094023 | 51 | 0 | 0.0 | 0.0 | 0.00 | 0.00 | 0.00 | 90 | 1016.0 |
| 20260831093528 | 51 | 0 | 0.0 | 0.0 | 0.00 | 0.00 | 0.00 | 90 | 1016.0 |
| 20260831093047 | 52 | 0 | 0.0 | 2.0 | 0.00 | 0.00 | 0.00 | 89 | 1016.1 |
| 20260831092525 | 52 | 0 | 0.0 | 2.0 | 0.00 | 0.00 | 0.00 | 89 | 1016.2 |
| 20260831092025 | 52 | 0 | 0.0 | 2.0 | 0.00 | 0.00 | 0.00 | 89 | 1016.2 |
| 20260831091554 | 52 | 252 | 0.0 | 1.0 | 0.00 | 0.00 | 0.00 | 90 | 1016.3 |
| 20260831091025 | 52 | 0 | 0.0 | 3.0 | 0.00 | 0.00 | 0.00 | 89 | 1016.3 |
| 20260831090524 | 52 | 0 | 0.0 | 3.0 | 0.00 | 0.00 | 0.00 | 89 | 1016.5 |
| 20260831090059 | 52 | 0 | 0.0 | 1.0 | 0.00 | 0.00 | 0.00 | 89 | 1016.5 |
| 20260831085524 | 52 | 0 | 0.0 | 1.0 | 0.00 | 0.00 | 0.00 | 89 | 1016.5 |
| 20260831085025 | 52 | 0 | 0.0 | 2.0 | 0.00 | 0.00 | 0.00 | 89 | 1016.6 |
| 20260831084547 | 52 | 0 | 0.0 | 2.0 | 0.00 | 0.00 | 0.00 | 89 | 1016.5 |
| 20260831084023 | 52 | 0 | 0.0 | 1.0 | 0.00 | 0.00 | 0.00 | 89 | 1016.4 |
| 20260831083525 | 52 | 0 | 0.0 | 2.0 | 0.00 | 0.00 | 0.00 | 89 | 1016.4 |
| 20260831083050 | 52 | 0 | 0.0 | 2.0 | 0.00 | 0.00 | 0.00 | 89 | 1016.3 |
| 20260831082524 | 53 | 0 | 0.0 | 1.0 | 0.00 | 0.00 | 0.00 | 88 | 1016.5 |
| 20260831082025 | 53 | 0 | 0.0 | 2.0 | 0.00 | 0.00 | 0.00 | 89 | 1016.5 |
| 20260831081544 | 52 | 0 | 0.0 | 2.0 | 0.00 | 0.00 | 0.00 | 89 | 1016.5 |
| 20260831081026 | 52 | 0 | 0.0 | 2.0 | 0.00 | 0.00 | 0.00 | 90 | 1016.5 |
| 20260831080524 | 52 | 0 | 0.0 | 2.0 | 0.00 | 0.00 | 0.00 | 90 | 1016.6 |
| 20260831080042 | 52 | 0 | 0.0 | 2.0 | 0.00 | 0.00 | 0.00 | 90 | 1016.6 |
| 20260831075522 | 52 | 0 | 0.0 | 2.0 | 0.00 | 0.00 | 0.00 | 90 | 1016.7 |
| 20260831075023 | 52 | 0 | 0.0 | 1.0 | 0.00 | 0.00 | 0.00 | 90 | 1016.7 |
| 20260831074551 | 52 | 0 | 0.0 | 1.0 | 0.00 | 0.00 | 0.00 | 89 | 1016.7 |
| 20260831074027 | 53 | 0 | 0.0 | 1.0 | 0.00 | 0.00 | 0.00 | 89 | 1016.8 |
| 20260831073523 | 53 | 0 | 0.0 | 1.0 | 0.00 | 0.00 | 0.00 | 89 | 1016.9 |
| 20260831073055 | 53 | 0 | 0.0 | 1.0 | 0.00 | 0.00 | 0.00 | 89 | 1016.8 |
| 20260831072526 | 53 | 0 | 0.0 | 1.0 | 0.00 | 0.00 | 0.00 | 88 | 1016.9 |
| 20260831072022 | 53 | 0 | 0.0 | 1.0 | 0.00 | 0.00 | 0.00 | 88 | 1017.0 |
| 20260831071545 | 53 | 229 | 0.0 | 1.0 | 0.00 | 0.00 | 0.00 | 88 | 1017.0 |
| 20260831071024 | 53 | 0 | 0.0 | 2.0 | 0.00 | 0.00 | 0.00 | 88 | 1017.1 |
| 20260831070524 | 53 | 0 | 0.0 | 2.0 | 0.00 | 0.00 | 0.00 | 87 | 1017.3 |
| 20260831070056 | 53 | 207 | 0.0 | 3.0 | 0.00 | 0.00 | 0.00 | 88 | 1017.3 |
| 20260831065526 | 53 | 0 | 0.0 | 3.0 | 0.00 | 0.00 | 0.00 | 88 | 1017.4 |
| 20260831065025 | 53 | 0 | 0.0 | 1.0 | 0.00 | 0.00 | 0.00 | 88 | 1017.5 |
| 20260831064548 | 53 | 0 | 0.0 | 1.0 | 0.00 | 0.00 | 0.00 | 88 | 1017.3 |
| 20260831064024 | 53 | 0 | 0.0 | 0.0 | 0.00 | 0.00 | 0.00 | 88 | 1017.4 |
| 20260831063522 | 54 | 0 | 0.0 | 0.0 | 0.00 | 0.00 | 0.00 | 88 | 1017.4 |
| 20260831063047 | 54 | 0 | 0.0 | 0.0 | 0.00 | 0.00 | 0.00 | 87 | 1017.5 |
| 20260831062525 | 54 | 0 | 0.0 | 0.0 | 0.00 | 0.00 | 0.00 | 87 | 1017.5 |
| 20260831062028 | 53 | 0 | 0.0 | 1.0 | 0.00 | 0.00 | 0.00 | 87 | 1017.5 |
| 20260831061551 | 54 | 0 | 0.0 | 2.0 | 0.00 | 0.00 | 0.00 | 87 | 1017.6 |
| 20260831061025 | 54 | 0 | 0.0 | 3.0 | 0.00 | 0.00 | 0.00 | 86 | 1017.7 |
| 20260831060528 | 54 | 0 | 0.0 | 4.0 | 0.00 | 0.00 | 0.00 | 86 | 1017.7 |
| 20260831060043 | 54 | 0 | 0.0 | 4.0 | 0.00 | 0.00 | 0.00 | 87 | 1017.8 |
| 20260831055523 | 54 | 0 | 0.0 | 2.0 | 0.00 | 0.00 | 0.00 | 87 | 1017.9 |
| 20260831055027 | 54 | 0 | 0.0 | 2.0 | 0.00 | 0.00 | 0.00 | 87 | 1017.9 |
| 20260831054550 | 54 | 0 | 0.0 | 0.0 | 0.00 | 0.00 | 0.00 | 87 | 1018.0 |
| 20260831054023 | 54 | 0 | 0.0 | 1.0 | 0.00 | 0.00 | 0.00 | 87 | 1018.0 |
| 20260831053524 | 54 | 0 | 0.0 | 1.0 | 0.00 | 0.00 | 0.00 | 88 | 1018.1 |
| 20260831053046 | 53 | 0 | 0.0 | 1.0 | 0.00 | 0.00 | 0.00 | 89 | 1018.2 |
| 20260831052524 | 53 | 234 | 0.0 | 1.0 | 0.00 | 0.00 | 0.00 | 89 | 1018.1 |
| 20260831052027 | 53 | 0 | 0.0 | 2.0 | 0.00 | 0.00 | 0.00 | 89 | 1018.2 |
| 20260831051544 | 53 | 0 | 0.0 | 2.0 | 0.00 | 0.00 | 0.00 | 90 | 1018.2 |
| 20260831051022 | 53 | 0 | 0.0 | 1.0 | 0.00 | 0.00 | 0.00 | 91 | 1018.2 |
| 20260831050523 | 53 | 0 | 0.0 | 1.0 | 0.00 | 0.00 | 0.00 | 91 | 1018.2 |
| 20260831050110 | 53 | 0 | 0.0 | 1.0 | 0.00 | 0.00 | 0.00 | 91 | 1018.2 |
| 20260831045523 | 53 | 0 | 0.0 | 0.0 | 0.00 | 0.00 | 0.00 | 91 | 1018.2 |
| 20260831045025 | 53 | 0 | 0.0 | 0.0 | 0.00 | 0.00 | 0.00 | 91 | 1018.2 |
| 20260831044607 | 53 | 0 | 0.0 | 0.0 | 0.00 | 0.00 | 0.00 | 91 | 1018.2 |
| 20260831044019 | 53 | 0 | 0.0 | 0.0 | 0.00 | 0.00 | 0.00 | 91 | 1018.2 |
| 20260831043519 | 53 | 0 | 0.0 | 0.0 | 0.00 | 0.00 | 0.00 | 91 | 1018.3 |
| 20260831043047 | 53 | 0 | 0.0 | 0.0 | 0.00 | 0.00 | 0.00 | 90 | 1018.3 |
| 20260831042523 | 53 | 0 | 0.0 | 0.0 | 0.00 | 0.00 | 0.00 | 90 | 1018.1 |
| 20260831042023 | 54 | 0 | 0.0 | 0.0 | 0.00 | 0.00 | 0.00 | 90 | 1018.2 |
| 20260831041555 | 54 | 0 | 0.0 | 0.0 | 0.00 | 0.00 | 0.00 | 90 | 1018.2 |
| 20260831041024 | 54 | 0 | 0.0 | 0.0 | 0.00 | 0.00 | 0.00 | 89 | 1018.3 |
| 20260831040525 | 54 | 0 | 0.0 | 0.0 | 0.00 | 0.00 | 0.00 | 89 | 1018.3 |
| 20260831040049 | 54 | 0 | 0.0 | 0.0 | 0.00 | 0.00 | 0.00 | 88 | 1018.4 |
| 20260831035524 | 54 | 0 | 0.0 | 0.0 | 0.00 | 0.00 | 0.00 | 87 | 1018.3 |
| 20260831035023 | 55 | 0 | 0.0 | 0.0 | 0.00 | 0.00 | 0.00 | 86 | 1018.4 |
| 20260831034550 | 55 | 0 | 0.0 | 0.0 | 0.00 | 0.00 | 0.00 | 86 | 1018.4 |
| 20260831034026 | 55 | 0 | 0.0 | 0.0 | 0.00 | 0.00 | 0.00 | 85 | 1018.3 |
| 20260831033525 | 55 | 0 | 0.0 | 0.0 | 0.00 | 0.00 | 0.00 | 85 | 1018.3 |
| 20260831033049 | 55 | 0 | 0.0 | 0.0 | 0.00 | 0.00 | 0.00 | 84 | 1018.2 |
| 20260831032530 | 55 | 0 | 0.0 | 0.0 | 0.00 | 0.00 | 0.00 | 85 | 1018.2 |
| 20260831032025 | 55 | 0 | 0.0 | 0.0 | 0.00 | 0.00 | 0.00 | 85 | 1018.0 |
| 20260831031547 | 56 | 0 | 0.0 | 0.0 | 0.00 | 0.00 | 0.00 | 85 | 1018.0 |
| 20260831031023 | 56 | 0 | 0.0 | 0.0 | 0.00 | 0.00 | 0.00 | 84 | 1018.0 |
| 20260831030526 | 57 | 0 | 0.0 | 0.0 | 0.00 | 0.00 | 0.00 | 83 | 1018.0 |
| 20260831030040 | 57 | 0 | 0.0 | 0.0 | 0.00 | 0.00 | 0.00 | 83 | 1018.0 |
| 20260831025524 | 57 | 0 | 0.0 | 0.0 | 0.00 | 0.01 | 0.00 | 83 | 1018.1 |
| 20260831025023 | 57 | 0 | 0.0 | 0.0 | 0.00 | 0.01 | 0.00 | 83 | 1018.1 |
| 20260831024609 | 57 | 0 | 0.0 | 0.0 | 0.00 | 0.01 | 0.00 | 83 | 1018.2 |
| 20260831024023 | 57 | 0 | 0.0 | 0.0 | 0.00 | 0.01 | 0.00 | 82 | 1018.2 |
| 20260831023523 | 58 | 0 | 0.0 | 0.0 | 0.00 | 0.01 | 0.00 | 81 | 1018.2 |
| 20260831023047 | 58 | 0 | 0.0 | 0.0 | 0.00 | 0.01 | 0.00 | 81 | 1018.1 |
| 20260831022524 | 58 | 0 | 0.0 | 0.0 | 0.00 | 0.01 | 0.00 | 80 | 1018.1 |
| 20260831022023 | 58 | 0 | 0.0 | 0.0 | 0.00 | 0.01 | 0.00 | 80 | 1018.0 |
| 20260831021545 | 59 | 0 | 0.0 | 0.0 | 0.00 | 0.01 | 0.00 | 79 | 1018.0 |
| 20260831021023 | 59 | 0 | 0.0 | 0.0 | 0.00 | 0.01 | 0.00 | 78 | 1018.2 |
| 20260831020522 | 59 | 0 | 0.0 | 0.0 | 0.00 | 0.01 | 0.00 | 78 | 1018.3 |
| 20260831015522 | 60 | 0 | 0.0 | 0.0 | 0.00 | 0.01 | 0.00 | 78 | 1018.2 |
| 20260831015022 | 60 | 0 | 0.0 | 0.0 | 0.00 | 0.01 | 0.00 | 78 | 1018.3 |
| 20260831014600 | 60 | 0 | 0.0 | 1.0 | 0.00 | 0.01 | 0.00 | 77 | 1018.3 |
| 20260831014023 | 60 | 0 | 0.0 | 1.0 | 0.00 | 0.01 | 0.00 | 77 | 1018.3 |
| 20260831013528 | 60 | 0 | 0.0 | 1.0 | 0.00 | 0.01 | 0.00 | 76 | 1018.3 |
| 20260831013047 | 60 | 0 | 0.0 | 1.0 | 0.00 | 0.01 | 0.00 | 76 | 1018.3 |
| 20260831012524 | 61 | 0 | 0.0 | 0.0 | 0.00 | 0.01 | 0.00 | 76 | 1018.4 |
| 20260831012023 | 61 | 0 | 0.0 | 0.0 | 0.00 | 0.01 | 0.00 | 74 | 1018.5 |
| 20260831011545 | 61 | 0 | 0.0 | 0.0 | 0.00 | 0.01 | 0.00 | 74 | 1018.5 |
| 20260831011021 | 62 | 0 | 0.0 | 1.0 | 0.00 | 0.01 | 0.00 | 73 | 1018.7 |
| 20260831010524 | 62 | 0 | 0.0 | 2.0 | 0.00 | 0.01 | 0.00 | 73 | 1018.7 |
| 20260831010053 | 62 | 0 | 0.0 | 2.0 | 0.00 | 0.01 | 0.00 | 71 | 1018.8 |
| 20260831005523 | 63 | 263 | 0.0 | 2.0 | 0.00 | 0.01 | 0.00 | 70 | 1018.8 |
| 20260831005024 | 64 | 230 | 1.0 | 2.0 | 0.00 | 0.01 | 0.00 | 68 | 1018.8 |
| 20260831004548 | 65 | 0 | 0.0 | 2.0 | 0.00 | 0.01 | 0.00 | 68 | 1018.8 |
| 20260831004023 | 65 | 0 | 0.0 | 2.0 | 0.00 | 0.01 | 0.00 | 64 | 1018.8 |
| 20260831003526 | 65 | 0 | 0.0 | 2.0 | 0.00 | 0.01 | 0.00 | 64 | 1018.9 |
| 20260831003046 | 65 | 0 | 0.0 | 2.0 | 0.00 | 0.01 | 0.00 | 62 | 1019.0 |
| 20260831002524 | 65 | 0 | 0.0 | 1.0 | 0.00 | 0.01 | 0.00 | 62 | 1019.0 |
| 20260831002024 | 65 | 0 | 0.0 | 2.0 | 0.00 | 0.01 | 0.00 | 61 | 1019.0 |
| 20260831001552 | 66 | 234 | 0.0 | 2.0 | 0.00 | 0.01 | 0.00 | 61 | 1019.1 |
| 20260831001023 | 66 | 232 | 0.0 | 3.0 | 0.00 | 0.01 | 0.00 | 59 | 1019.0 |
| 20260831000524 | 66 | 228 | 0.0 | 3.0 | 0.00 | 0.01 | 0.00 | 59 | 1018.9 |
| 20260831000049 | 66 | 0 | 0.0 | 3.0 | 0.00 | 0.01 | 0.00 | 60 | 1019.0 |
| 20260830235527 | 66 | 273 | 1.0 | 3.0 | 0.00 | 0.01 | 0.00 | 60 | 1018.9 |
| 20260830235023 | 66 | 0 | 0.0 | 3.0 | 0.00 | 0.01 | 0.00 | 59 | 1019.0 |
| 20260830234607 | 66 | 263 | 0.0 | 4.0 | 0.00 | 0.01 | 0.00 | 59 | 1019.1 |
| 20260830234024 | 66 | 265 | 1.0 | 4.0 | 0.00 | 0.01 | 0.00 | 59 | 1019.0 |
| 20260830233527 | 66 | 0 | 1.0 | 4.0 | 0.00 | 0.01 | 0.00 | 58 | 1019.0 |
| 20260830233046 | 66 | 251 | 1.0 | 4.0 | 0.00 | 0.01 | 0.00 | 57 | 1019.1 |
| 20260830232523 | 66 | 265 | 1.0 | 4.0 | 0.00 | 0.01 | 0.00 | 57 | 1019.2 |
| 20260830232023 | 67 | 276 | 0.0 | 3.0 | 0.00 | 0.01 | 0.00 | 59 | 1019.2 |
| 20260830231553 | 66 | 211 | 0.0 | 2.0 | 0.00 | 0.01 | 0.00 | 60 | 1019.2 |
| 20260830231023 | 66 | 0 | 0.0 | 2.0 | 0.00 | 0.01 | 0.00 | 62 | 1019.3 |
| 20260830230525 | 65 | 0 | 0.0 | 2.0 | 0.00 | 0.01 | 0.00 | 61 | 1019.6 |
| 20260830230046 | 65 | 0 | 0.0 | 3.0 | 0.00 | 0.01 | 0.00 | 60 | 1019.5 |
| 20260830225523 | 66 | 302 | 0.0 | 5.0 | 0.00 | 0.01 | 0.00 | 57 | 1019.6 |
| 20260830225026 | 67 | 0 | 0.0 | 5.0 | 0.00 | 0.01 | 0.00 | 57 | 1019.6 |
| 20260830224542 | 68 | 195 | 1.0 | 4.0 | 0.00 | 0.01 | 0.00 | 55 | 1019.6 |
| 20260830224023 | 67 | 268 | 0.0 | 4.0 | 0.00 | 0.01 | 0.00 | 56 | 1019.5 |
| 20260830223523 | 66 | 109 | 1.0 | 8.0 | 0.00 | 0.01 | 0.00 | 57 | 1019.5 |
| 20260830223050 | 65 | 241 | 1.0 | 8.0 | 0.00 | 0.01 | 0.00 | 60 | 1019.5 |
| 20260830222519 | 65 | 127 | 0.0 | 5.0 | 0.00 | 0.01 | 0.00 | 59 | 1019.5 |
| 20260830222027 | 65 | 0 | 1.0 | 5.0 | 0.00 | 0.01 | 0.00 | 59 | 1019.6 |
| 20260830221552 | 66 | 0 | 1.0 | 5.0 | 0.00 | 0.01 | 0.00 | 58 | 1019.6 |
| 20260830221025 | 66 | 0 | 0.0 | 3.0 | 0.00 | 0.01 | 0.00 | 60 | 1019.7 |
| 20260830220525 | 65 | 0 | 0.0 | 3.0 | 0.00 | 0.01 | 0.00 | 60 | 1019.7 |
| 20260830220047 | 66 | 257 | 1.0 | 3.0 | 0.00 | 0.01 | 0.00 | 60 | 1019.8 |
| 20260830215525 | 64 | 0 | 1.0 | 3.0 | 0.00 | 0.08 | 0.00 | 61 | 1019.8 |
| 20260830215025 | 65 | 0 | 0.0 | 3.0 | 0.00 | 0.08 | 0.00 | 60 | 1019.9 |
| 20260830214542 | 65 | 0 | 0.0 | 4.0 | 0.00 | 0.08 | 0.00 | 56 | 1020.0 |
| 20260830214023 | 65 | 184 | 0.0 | 4.0 | 0.00 | 0.08 | 0.00 | 58 | 1020.0 |
| 20260830213523 | 65 | 271 | 1.0 | 3.0 | 0.00 | 0.08 | 0.00 | 59 | 1020.2 |
| 20260830213049 | 65 | 0 | 0.0 | 5.0 | 0.00 | 0.08 | 0.00 | 61 | 1020.1 |
| 20260830212523 | 65 | 0 | 0.0 | 6.0 | 0.00 | 0.08 | 0.00 | 61 | 1020.2 |
| 20260830212025 | 64 | 262 | 1.0 | 6.0 | 0.00 | 0.08 | 0.00 | 63 | 1020.3 |
| 20260830211546 | 64 | 94 | 0.0 | 3.0 | 0.00 | 0.08 | 0.00 | 61 | 1020.2 |
| 20260830211024 | 64 | 0 | 0.0 | 6.0 | 0.00 | 0.08 | 0.00 | 59 | 1020.3 |
| 20260830210525 | 64 | 302 | 2.0 | 6.0 | 0.00 | 0.08 | 0.00 | 61 | 1020.3 |
| 20260830210046 | 65 | 204 | 0.0 | 4.0 | 0.00 | 0.08 | 0.00 | 62 | 1020.3 |
| 20260830205527 | 65 | 0 | 0.0 | 4.0 | 0.00 | 0.13 | 0.00 | 62 | 1020.4 |
| 20260830205026 | 64 | 139 | 1.0 | 4.0 | 0.00 | 0.13 | 0.00 | 64 | 1020.4 |
| 20260830204539 | 64 | 223 | 0.0 | 3.0 | 0.00 | 0.13 | 0.00 | 66 | 1020.4 |
| 20260830204023 | 63 | 0 | 0.0 | 2.0 | 0.00 | 0.13 | 0.00 | 66 | 1020.5 |
| 20260830203524 | 63 | 249 | 0.0 | 2.0 | 0.00 | 0.13 | 0.00 | 67 | 1020.5 |
| 20260830203050 | 63 | 187 | 0.0 | 3.0 | 0.00 | 0.13 | 0.00 | 66 | 1020.5 |
| 20260830202528 | 64 | 0 | 0.0 | 4.0 | 0.00 | 0.13 | 0.00 | 65 | 1020.4 |
| 20260830202021 | 64 | 90 | 0.0 | 4.0 | 0.00 | 0.13 | 0.00 | 63 | 1020.4 |
| 20260830201608 | 63 | 292 | 0.0 | 4.0 | 0.00 | 0.13 | 0.00 | 65 | 1020.4 |
| 20260830201022 | 61 | 0 | 0.0 | 4.0 | 0.00 | 0.13 | 0.00 | 66 | 1020.5 |
| 20260830200524 | 62 | 0 | 0.0 | 5.0 | 0.00 | 0.13 | 0.00 | 66 | 1020.5 |
| 20260830200047 | 63 | 221 | 0.0 | 5.0 | 0.00 | 0.13 | 0.00 | 67 | 1020.5 |
| 20260830195524 | 62 | 0 | 0.0 | 5.0 | 0.00 | 0.24 | 0.00 | 67 | 1020.5 |
| 20260830195024 | 61 | 0 | 0.0 | 3.0 | 0.00 | 0.24 | 0.00 | 67 | 1020.5 |
| 20260830194548 | 61 | 0 | 0.0 | 3.0 | 0.00 | 0.24 | 0.00 | 67 | 1020.5 |
| 20260830194023 | 62 | 0 | 0.0 | 4.0 | 0.00 | 0.24 | 0.00 | 66 | 1020.5 |
| 20260830193524 | 62 | 0 | 0.0 | 4.0 | 0.00 | 0.24 | 0.00 | 67 | 1020.6 |
| 20260830193051 | 62 | 123 | 0.0 | 4.0 | 0.00 | 0.24 | 0.00 | 70 | 1020.6 |
| 20260830192522 | 61 | 211 | 0.0 | 4.0 | 0.00 | 0.24 | 0.00 | 67 | 1020.5 |
| 20260830192023 | 62 | 211 | 1.0 | 4.0 | 0.00 | 0.24 | 0.00 | 66 | 1020.6 |
| 20260830191549 | 60 | 0 | 0.0 | 4.0 | 0.00 | 0.24 | 0.00 | 71 | 1020.6 |
| 20260830191026 | 60 | 219 | 1.0 | 4.0 | 0.00 | 0.24 | 0.00 | 69 | 1020.7 |
| 20260830190521 | 60 | 0 | 1.0 | 6.0 | 0.00 | 0.24 | 0.00 | 69 | 1020.6 |
| 20260830190046 | 60 | 0 | 1.0 | 6.0 | 0.00 | 0.24 | 0.00 | 70 | 1020.7 |